Volver al catálogo

SL-16 DEB

ActivoLEO
NORAD 39908·DEBRIS·🇷🇺 Russia

Lanzado Mar 26, 1993 desde Baikonur Cosmodrome

Loading…

Próximos Pases (próximas 24 horas)

TLE

EnvejeciendoSource: Space-Track

Época: Sep 12, 2026, 13:41 UTC

1 39908U 93016CJ  26255.57035198  .00000338  00000-0  15853-3 0  9995
2 39908  71.0040 317.5829 0011370 247.5217 112.4708 14.27182369637897

Sigue SL-16 DEB en tiempo real con AllMySat

Download on the App Store